DW8565 Weather Reports


Display with metric or nautical units.
time (UTC)temp
F
wind
direction
speed
MPH
gust
MPH
rain 1hr
in
rain 24hr
in
rain mn
in
humidity
%
barometer
mb
20260505063434 56 173 3.0 7.0 0.00 0.00 0.00 83 1010.9
20260505062933 56 197 4.0 9.0 0.00 0.00 0.00 83 1010.9
20260505062434 57 171 4.0 10.0 0.00 0.00 0.00 83 1010.9
20260505061933 56 209 4.0 10.0 0.00 0.00 0.00 83 1010.9
20260505061432 56 212 4.0 10.0 0.00 0.00 0.00 83 1010.9
20260505060933 56 232 4.0 10.0 0.00 0.00 0.00 84 1010.9
20260505060430 56 176 4.0 9.0 0.00 0.00 0.00 84 1010.8
20260505055931 56 194 4.0 9.0 0.00 0.00 0.00 84 1010.8
20260505055431 55 229 4.0 8.0 0.00 0.00 0.00 85 1010.9
20260505054931 55 200 4.0 9.0 0.00 0.00 0.00 85 1011.0
20260505054433 55 159 4.0 10.0 0.00 0.00 0.00 86 1011.0
20260505053931 54 211 4.0 10.0 0.00 0.00 0.00 86 1011.1
20260505053437 54 239 4.0 8.0 0.00 0.00 0.00 85 1011.1
20260505052931 54 234 4.0 10.0 0.00 0.00 0.00 86 1011.1
20260505052433 54 181 3.0 10.0 0.00 0.00 0.00 86 1011.2
20260505051925 54 208 3.0 8.0 0.00 0.00 0.00 86 1011.3
20260505051655 54 155 3.0 9.0 0.00 0.00 0.00 86 1011.3
20260505050923 54 167 3.0 9.0 0.00 0.00 0.00 85 1011.4
20260505050424 54 187 3.0 8.0 0.00 0.00 0.00 85 1011.4
20260505041419 54 213 3.0 8.0 0.00 0.00 0.00 86 1011.6
20260505040917 54 209 3.0 8.0 0.00 0.00 0.00 86 1011.6
20260505040416 54 148 3.0 8.0 0.00 0.00 0.00 86 1011.6
20260505035916 54 224 3.0 8.0 0.00 0.00 0.00 86 1011.6
20260505035417 54 173 3.0 8.0 0.00 0.00 0.00 86 1011.6
20260505034911 54 211 3.0 7.0 0.00 0.00 0.00 86 1011.6
20260505034636 54 169 3.0 6.0 0.00 0.00 0.00 86 1011.6
20260505033859 54 203 3.0 10.0 0.00 0.00 0.00 86 1011.5
20260505033353 53 228 3.0 10.0 0.00 0.00 0.00 86 1011.6
20260505032847 54 227 3.0 8.0 0.00 0.00 0.00 86 1011.6
20260505032341 54 220 3.0 7.0 0.00 0.00 0.00 85 1011.7
20260505031835 54 192 3.0 7.0 0.00 0.00 0.00 85 1011.7
20260505031329 54 201 3.0 7.0 0.00 0.00 0.00 85 1011.7
20260505030823 54 211 3.0 7.0 0.00 0.00 0.00 85 1011.7
20260505030318 54 211 3.0 7.0 0.00 0.00 0.00 85 1011.8
20260505025824 54 263 3.0 7.0 0.00 0.00 0.00 85 1011.8
20260505025306 54 252 3.0 8.0 0.00 0.00 0.00 85 1011.9
20260505024800 54 190 3.0 8.0 0.00 0.00 0.00 85 1011.9
20260505024524 54 219 3.0 7.0 0.00 0.00 0.00 85 1011.9
20260505023748 54 210 3.0 9.0 0.00 0.00 0.00 84 1011.9
20260505023242 55 202 4.0 9.0 0.00 0.00 0.00 84 1011.9
20260505022734 55 215 4.0 9.0 0.00 0.00 0.00 84 1011.8
20260505022228 55 242 4.0 8.0 0.00 0.00 0.00 83 1011.9
20260505021724 55 181 4.0 12.0 0.00 0.00 0.00 83 1011.9
20260505020711 55 224 5.0 12.0 0.00 0.00 0.00 82 1012.0
20260505020204 56 202 5.0 12.0 0.00 0.00 0.00 81 1012.0
20260505015659 56 223 5.0 11.0 0.00 0.00 0.00 81 1011.9
20260505015424 56 231 5.0 11.0 0.00 0.00 0.00 80 1011.7
20260505014647 56 326 6.0 11.0 0.00 0.00 0.00 80 1011.7
20260505014142 56 221 5.0 11.0 0.00 0.00 0.00 81 1011.7
20260505013636 56 232 5.0 11.0 0.00 0.00 0.00 81 1011.8
20260505013128 56 237 5.0 11.0 0.00 0.00 0.00 80 1011.7
20260505012624 56 175 4.0 11.0 0.00 0.00 0.00 80 1011.7
20260505012118 56 189 4.0 10.0 0.00 0.00 0.00 79 1011.7
20260505011612 56 200 5.0 10.0 0.00 0.00 0.00 79 1011.6
20260505011104 56 202 4.0 10.0 0.00 0.00 0.00 79 1011.6
20260505010559 56 175 4.0 9.0 0.00 0.00 0.00 78 1011.6
20260505010053 56 156 3.0 7.0 0.00 0.00 0.00 78 1011.5
20260505005549 56 213 3.0 10.0 0.00 0.00 0.00 79 1011.4
20260505005043 56 246 4.0 10.0 0.00 0.00 0.00 80 1011.4
20260505004547 55 187 4.0 9.0 0.00 0.00 0.00 82 1011.3
20260505004029 55 175 4.0 8.0 0.00 0.00 0.00 82 1011.2
20260505003756 55 240 4.0 9.0 0.00 0.00 0.00 82 1011.2
20260505003024 54 164 4.0 9.0 0.00 0.00 0.00 83 1011.2
20260505002511 54 171 3.0 9.0 0.00 0.00 0.00 84 1011.2
20260505002006 54 250 3.0 7.0 0.00 0.00 0.00 83 1011.2
20260505001458 54 206 4.0 8.0 0.00 0.00 0.00 83 1011.1
20260505000954 54 196 4.0 8.0 0.00 0.00 0.00 83 1011.1
20260505000720 54 164 4.0 8.0 0.00 0.00 0.00 83 1011.0
20260504235943 54 181 4.0 9.0 0.00 0.00 0.00 83 1011.0
20260504235435 55 227 4.0 9.0 0.00 0.00 0.00 83 1011.0
20260504234930 54 220 4.0 11.0 0.00 0.00 0.00 83 1011.0
20260504234422 54 188 4.0 11.0 0.00 0.00 0.00 83 1011.0
20260504233917 55 218 4.0 14.0 0.00 0.00 0.00 82 1010.9
20260504233411 55 168 4.0 14.0 0.00 0.00 0.00 82 1011.0
20260504232905 55 164 4.0 9.0 0.00 0.00 0.00 81 1010.9
20260504232401 55 233 4.0 9.0 0.00 0.00 0.00 80 1010.9
20260504231853 55 225 4.0 9.0 0.00 0.00 0.00 79 1010.9
20260504231349 56 168 5.0 9.0 0.00 0.00 0.00 79 1010.9
20260504230849 56 215 4.0 12.0 0.00 0.00 0.00 79 1010.8
20260504230348 56 239 5.0 12.0 0.00 0.00 0.00 78 1010.8
20260504225849 56 189 5.0 11.0 0.00 0.00 0.00 78 1010.8
20260504225621 56 221 4.0 11.0 0.00 0.00 0.00 77 1010.9
20260504224848 56 165 4.0 11.0 0.00 0.00 0.00 77 1010.9
20260504224348 57 180 4.0 9.0 0.00 0.00 0.00 77 1010.8
20260504223849 57 221 5.0 10.0 0.00 0.00 0.00 76 1010.8
20260504223349 57 217 5.0 13.0 0.00 0.00 0.00 76 1010.9
20260504222849 57 180 6.0 13.0 0.00 0.00 0.00 76 1010.9
20260504222348 57 179 5.0 13.0 0.00 0.00 0.00 76 1010.8
20260504222119 57 223 5.0 11.0 0.00 0.00 0.00 75 1010.8
20260504221344 57 189 5.0 11.0 0.00 0.00 0.00 76 1010.8
20260504220845 57 199 5.0 12.0 0.00 0.00 0.00 75 1010.8
20260504220346 57 210 5.0 14.0 0.00 0.00 0.00 75 1010.8
20260504215846 57 207 5.0 14.0 0.00 0.00 0.00 75 1010.8
20260504215619 57 252 5.0 12.0 0.00 0.00 0.00 75 1010.7
20260504214848 58 190 5.0 15.0 0.00 0.00 0.00 75 1010.7
20260504214341 58 143 5.0 15.0 0.00 0.00 0.00 75 1010.7
20260504213835 58 194 6.0 14.0 0.00 0.00 0.00 75 1010.7
20260504213329 58 216 6.0 14.0 0.00 0.00 0.00 74 1010.7
20260504212824 58 215 5.0 14.0 0.00 0.00 0.00 74 1010.7
20260504212317 58 145 5.0 12.0 0.00 0.00 0.00 74 1010.7
20260504211811 58 149 6.0 11.0 0.00 0.00 0.00 73 1010.8
20260504211305 58 162 6.0 12.0 0.00 0.00 0.00 73 1010.8
20260504211030 58 177 5.0 12.0 0.00 0.00 0.00 73 1010.8
20260504210252 58 180 5.0 12.0 0.00 0.00 0.00 73 1010.7
20260504205747 58 163 5.0 16.0 0.00 0.00 0.00 73 1010.8
20260504205242 58 195 5.0 16.0 0.00 0.00 0.00 73 1010.7
20260504204734 59 171 5.0 11.0 0.00 0.00 0.00 73 1010.8
20260504204228 59 165 5.0 10.0 0.00 0.00 0.00 73 1010.8
20260504203723 59 184 5.0 11.0 0.00 0.00 0.00 73 1010.8
20260504203217 59 186 5.0 12.0 0.00 0.00 0.00 72 1010.8
20260504202711 59 178 5.0 14.0 0.00 0.00 0.00 72 1010.8
20260504202205 59 170 5.0 14.0 0.00 0.00 0.00 72 1010.8
20260504201659 59 170 5.0 13.0 0.00 0.00 0.00 71 1010.9
20260504201153 59 151 4.0 12.0 0.00 0.00 0.00 71 1010.9
20260504200646 59 165 4.0 12.0 0.00 0.00 0.00 71 1010.9
20260504200140 59 155 5.0 20.0 0.00 0.00 0.00 71 1011.0
20260504195635 59 225 6.0 20.0 0.00 0.00 0.00 71 1011.0
20260504195129 59 173 5.0 11.0 0.00 0.00 0.00 71 1011.0
20260504194623 59 186 5.0 11.0 0.00 0.00 0.00 71 1011.1
20260504194117 59 201 5.0 11.0 0.00 0.00 0.00 71 1011.2
20260504193617 59 140 6.0 15.0 0.00 0.00 0.00 71 1011.3
20260504193116 59 143 6.0 15.0 0.00 0.00 0.00 71 1011.3
20260504192616 59 160 6.0 13.0 0.00 0.00 0.00 70 1011.3
20260504192349 59 156 5.0 15.0 0.00 0.00 0.00 69 1011.4
20260504191617 59 169 5.0 15.0 0.00 0.00 0.00 69 1011.4
20260504191116 60 165 6.0 15.0 0.00 0.00 0.00 69 1011.5
20260504190615 59 210 6.0 12.0 0.00 0.00 0.00 69 1011.5
20260504190116 59 174 5.0 17.0 0.00 0.00 0.00 69 1011.6
20260504185616 60 186 5.0 17.0 0.00 0.00 0.00 68 1011.6
20260504185349 60 164 5.0 16.0 0.00 0.00 0.00 68 1011.7
20260504184617 60 181 5.0 14.0 0.00 0.00 0.00 67 1011.8
20260504184117 60 188 4.0 14.0 0.00 0.00 0.00 67 1011.9
20260504183617 60 185 5.0 13.0 0.00 0.00 0.00 68 1012.0
20260504183112 60 185 5.0 13.0 0.00 0.00 0.00 68 1012.0
20260504182844 60 170 5.0 12.0 0.00 0.00 0.00 68 1012.0
20260504182114 60 161 6.0 15.0 0.00 0.00 0.00 68 1012.1
20260504181612 60 168 5.0 15.0 0.00 0.00 0.00 68 1012.1
20260504181112 60 272 5.0 14.0 0.00 0.00 0.00 68 1012.1
20260504180613 60 218 5.0 14.0 0.00 0.00 0.00 68 1012.3
20260504180113 60 207 5.0 13.0 0.00 0.00 0.00 68 1012.4
20260504175612 60 158 5.0 12.0 0.00 0.00 0.00 68 1012.4
20260504175114 60 200 5.0 14.0 0.00 0.00 0.00 69 1012.5
20260504174607 60 188 5.0 14.0 0.00 0.00 0.00 69 1012.5
20260504174107 60 175 5.0 12.0 0.00 0.00 0.00 69 1012.5
20260504173609 60 170 5.0 12.0 0.00 0.00 0.00 69 1012.5
20260504173107 60 162 5.0 13.0 0.00 0.00 0.00 69 1012.6
20260504172608 60 230 5.0 14.0 0.00 0.00 0.00 69 1012.7
20260504172108 60 233 5.0 16.0 0.00 0.00 0.00 69 1012.7
20260504171608 60 149 5.0 16.0 0.00 0.00 0.00 69 1012.7
20260504171108 60 174 4.0 11.0 0.00 0.00 0.00 69 1012.8
20260504170842 60 184 4.0 11.0 0.00 0.00 0.00 69 1012.9
20260504170104 60 156 5.0 11.0 0.00 0.00 0.00 69 1013.0
20260504151102 59 165 5.0 12.0 0.00 0.00 0.00 68 1013.8
20260504150556 59 315 6.0 12.0 0.00 0.00 0.00 69 1013.9
20260504141043 58 211 5.0 12.0 0.00 0.00 0.00 70 1014.2
20260504140543 58 198 5.0 11.0 0.00 0.00 0.00 70 1014.2
20260504140313 58 207 5.0 12.0 0.00 0.00 0.00 70 1014.3
20260504130503 58 280 6.0 16.0 0.00 0.00 0.00 63 1014.7
20260504110240 53 215 7.0 17.0 0.00 0.00 0.00 69 1015.4
20260504100128 51 237 5.0 12.0 0.00 0.00 0.00 67 1015.2
20260504090106 53 220 7.0 19.0 0.00 0.00 0.00 68 1015.1
20260504081606 53 229 8.0 14.0 0.00 0.00 0.00 67 1015.0
20260504081335 53 223 9.0 16.0 0.00 0.00 0.00 67 1015.0
20260504080606 53 205 9.0 16.0 0.00 0.00 0.00 66 1014.9
20260504080106 53 237 8.0 15.0 0.00 0.00 0.00 66 1014.9
20260504070108 53 227 8.0 15.0 0.00 0.00 0.00 62 1014.5